Location: Asheville, NC
(35.6000°N, 82.5500°W)
Time: 05:47:47
(UTC-04:00)

SRMSAT - Pass Details

Date: 11 January 2018
Orbit: 849 x 866 km, 20.0° (Epoch: 20 April)

Event Time Altitude Azimuth Distance (km) Brightness Sun altitude
Rises 17:55:58 0° 225° (SW) 3,422 ? -4.4°
Reaches altitude 10° 17:59:48 10° 201° (SSW) 2,484 ? -5.1°
Maximum altitude 18:02:50 14° 171° (S) 2,194 ? -5.7°
Drops below altitude 10° 18:05:52 10° 140° (SE) 2,482 ? -6.2°
Sets 18:09:42 0° 116° (ESE) 3,417 ? -7.0°
